KB2UHF-8 Weather Reports


Display with metric or nautical units.
time (UTC)temp
F
wind
direction
speed
MPH
gust
MPH
rain 1hr
in
rain 24hr
in
rain mn
in
humidity
%
barometer
mb
20260504024536 60 270 2.0 4.0 0.00 0.00 0.00 44 1005.6
20260504023516 60 270 2.0 3.0 0.00 0.00 0.00 43 1005.4
20260504022515 61 270 2.0 6.0 0.00 0.00 0.00 43 1005.3
20260504021516 62 270 2.0 4.0 0.00 0.00 0.00 40 1005.3
20260504020535 62 248 2.0 3.0 0.00 0.00 0.00 40 1005.2
20260504015515 62 248 2.0 6.0 0.00 0.00 0.00 40 1005.2
20260504014516 62 270 1.0 3.0 0.00 0.00 0.00 40 1005.0
20260504013535 63 0.0 2.0 0.00 0.00 0.00 39 1004.9
20260504012515 63 270 1.0 3.0 0.00 0.00 0.00 39 1004.9
20260504011515 64 270 2.0 7.0 0.00 0.00 0.00 38 1004.8
20260504010515 65 270 2.0 6.0 0.00 0.00 0.00 38 1004.8
20260504005555 66 270 3.0 6.0 0.00 0.00 0.00 37 1004.8
20260504004515 67 270 4.0 8.0 0.00 0.00 0.00 34 1004.8
20260504003515 68 293 5.0 12.0 0.00 0.00 0.00 35 1005.1
20260504002515 69 293 3.0 6.0 0.00 0.00 0.00 36 1004.9
20260504001515 69 315 4.0 8.0 0.00 0.00 0.00 36 1004.9
20260504000515 69 315 4.0 11.0 0.00 0.00 0.00 35 1005.0
20260503235515 69 293 6.0 11.0 0.00 0.00 0.00 35 1004.8
20260503234515 70 315 6.0 12.0 0.00 0.00 0.00 33 1004.7
20260503233555 70 293 5.0 13.0 0.00 0.00 0.00 31 1004.7
20260503232515 70 315 7.0 13.0 0.00 0.00 0.00 32 1004.6
20260503231617 70 315 6.0 12.0 0.00 0.00 0.00 33 1004.6
20260503230557 71 293 7.0 12.0 0.00 0.00 0.00 32 1004.6
20260503225515 71 315 5.0 12.0 0.00 0.00 0.00 33 1004.5
20260503224517 71 315 9.0 14.0 0.00 0.00 0.00 34 1004.4
20260503223517 71 315 6.0 11.0 0.00 0.00 0.00 35 1004.5
20260503222517 71 293 7.0 17.0 0.00 0.00 0.00 35 1004.5
20260503221517 71 293 8.0 13.0 0.00 0.00 0.00 33 1004.4
20260503220517 72 270 5.0 11.0 0.00 0.00 0.00 33 1004.5
20260503215517 71 270 5.0 13.0 0.00 0.00 0.00 39 1004.5
20260503214517 71 270 8.0 13.0 0.00 0.00 0.00 33 1004.6
20260503213517 71 270 9.0 17.0 0.00 0.00 0.00 34 1004.6
20260503212517 71 293 9.0 15.0 0.00 0.00 0.00 33 1004.6
20260503211519 71 270 7.0 12.0 0.00 0.00 0.00 37 1004.5
20260503210517 71 270 5.0 13.0 0.00 0.00 0.00 36 1004.8
20260503205517 70 270 5.0 10.0 0.00 0.00 0.00 39 1004.8
20260503204519 70 338 7.0 14.0 0.00 0.00 0.00 39 1004.9
20260503203517 70 270 5.0 11.0 0.00 0.00 0.00 39 1005.1
20260503202517 69 270 8.0 17.0 0.00 0.00 0.00 39 1005.0
20260503201517 69 270 10.0 17.0 0.00 0.00 0.00 39 1005.2
20260503200517 69 248 6.0 14.0 0.00 0.00 0.00 40 1005.3
20260503195517 69 270 8.0 14.0 0.00 0.00 0.00 41 1005.3
20260503194517 68 270 9.0 16.0 0.00 0.00 0.00 40 1005.3
20260503193517 67 293 8.0 13.0 0.00 0.00 0.00 40 1005.4
20260503192537 68 225 6.0 13.0 0.00 0.00 0.00 42 1005.6
20260503191517 67 248 8.0 15.0 0.00 0.00 0.00 42 1005.6
20260503190537 67 225 5.0 11.0 0.00 0.00 0.00 42 1005.7
20260503185517 65 225 7.0 15.0 0.00 0.00 0.00 44 1005.7
20260503184517 65 248 7.0 15.0 0.00 0.00 0.00 44 1005.7
20260503183517 65 225 6.0 13.0 0.00 0.00 0.00 50 1005.8
20260503182517 64 270 8.0 14.0 0.00 0.00 0.00 44 1005.9
20260503181517 64 248 8.0 15.0 0.00 0.00 0.00 48 1005.9
20260503180557 64 248 9.0 18.0 0.00 0.00 0.00 45 1006.0
20260503175517 63 225 8.0 16.0 0.00 0.00 0.00 46 1006.2
20260503174537 64 225 6.0 14.0 0.00 0.00 0.00 50 1006.1
20260503173517 63 225 5.0 10.0 0.00 0.00 0.00 49 1006.2
20260503172517 62 270 8.0 18.0 0.00 0.00 0.00 48 1006.3
20260503171537 62 248 10.0 17.0 0.00 0.00 0.00 46 1006.6
20260503170537 62 270 6.0 17.0 0.00 0.00 0.00 50 1006.7
20260503150518 59 225 7.0 17.0 0.00 0.00 0.00 51 1007.2
20260503130518 53 203 6.0 15.0 0.00 0.00 0.00 62 1008.3
20260503110516 51 225 7.0 17.0 0.00 0.00 0.00 63 1009.5
20260503081516 51 225 6.0 12.0 0.00 0.00 0.00 49 1011.0
20260503080516 51 225 7.0 15.0 0.00 0.00 0.00 49 1011.1
20260503072516 51 225 5.0 10.0 0.00 0.00 0.00 49 1011.2
20260503071516 50 225 5.0 10.0 0.00 0.00 0.00 50 1011.4
20260503070616 50 225 4.0 9.0 0.00 0.00 0.00 50 1011.5
20260503054536 49 225 5.0 11.0 0.00 0.00 0.00 50 1012.1
20260503053516 49 225 4.0 11.0 0.00 0.00 0.00 50 1012.2
20260503052537 49 225 4.0 10.0 0.00 0.00 0.00 50 1012.2
20260503051536 50 225 4.0 7.0 0.00 0.00 0.00 50 1012.3
20260503050536 50 225 5.0 10.0 0.00 0.00 0.00 49 1012.2
20260503045516 50 225 4.0 9.0 0.00 0.00 0.00 49 1012.3
20260503044516 50 225 4.0 8.0 0.00 0.00 0.00 49 1012.4
20260503043517 50 225 4.0 9.0 0.00 0.00 0.00 49 1012.5
20260503042536 50 225 4.0 8.0 0.00 0.00 0.00 49 1012.7
20260503041516 50 225 4.0 9.0 0.00 0.00 0.00 50 1012.7
20260503040516 50 225 4.0 8.0 0.00 0.00 0.00 49 1012.8
20260503035516 50 225 3.0 6.0 0.00 0.00 0.00 49 1012.8
20260503034516 50 225 3.0 6.0 0.00 0.00 0.00 48 1012.9
20260503033516 50 225 3.0 6.0 0.00 0.00 0.00 48 1013.0
20260503032516 51 225 3.0 5.0 0.00 0.00 0.00 48 1013.1
20260503031516 51 225 2.0 4.0 0.00 0.00 0.00 47 1013.1
20260503030516 51 203 1.0 3.0 0.00 0.00 0.00 46 1013.3
20260503025516 52 225 2.0 6.0 0.00 0.00 0.00 45 1013.3